Flag for Mexico Weather past 2 weeks in Merida, Yucatán, Mexico

Now
86 °F

Partly sunny.


Feels Like: 88 °F
Forecast: 74 / 85 °F
Wind: 8 mph from East

Location: Aerop. Internacional Merida - Yuc

Current Time: Mar 6, 2015 at 12:03:18 PM

Latest Report: Mar 6, 2015 at 11:45 AM


Visibility: 7 mi

Pressure: 30.13 "Hg

Humidity: 52%

Dew point: 66 °F

Location of MeridaLocation

Historic Weather in Merida — Graph

°F

Merida temperature yesterday

Maximum temperature yesterday: 97 °F (at 2:50 PM)
Minimum temperature yesterday: 72 °F (at 5:49 AM)
Average temperature yesterday: 82 °F

Past Weeks' High & Low Weather Summary

 TemperatureHumidityPressure
High97 °F (Feb 25, 2:40 PM)100% (Feb 23, 6:09 AM)30.29 "Hg (Feb 23, 6:09 AM)
Low57 °F (Feb 20, 12:53 AM)30% (Feb 25, 2:40 PM)29.56 "Hg (Feb 27, 5:48 AM)
Average78 °F72%30.02 "Hg
* Reported Feb 19 10:47 AM — Mar 6 10:45 AM, Merida, Weather by CustomWeather, © 2015

Note: Actual official high and low records may vary slightly from our data, if they occured in-between our weather recording intervals... More about our weather records

Advertising

Merida weather history for previous 24 hours

 ConditionsComfort  
Time TempWeatherWind HumidityBarometerVisibility
10:45 AM
Fri, Mar 6
88 °FPartly sunny.14 mph55%30.15 "Hg7 mi
9:47 AM84 °FPartly sunny.8 mph66%30.16 "Hg7 mi
8:46 AM81 °FPartly sunny.12 mph79%30.11 "Hg7 mi
6:46 AM73 °FPassing clouds.8 mph89%30.10 "Hg6 mi
5:51 AM73 °FPassing clouds.7 mph89%30.07 "Hg7 mi
4:52 AM75 °FPassing clouds.7 mph89%30.07 "Hg7 mi
3:54 AM75 °FPassing clouds.6 mph89%30.05 "Hg7 mi
2:54 AM75 °FPassing clouds.9 mph89%29.97 "Hg7 mi
1:54 AM77 °FPassing clouds.7 mph83%30.05 "Hg7 mi
12:53 AM77 °FPassing clouds.5 mph79%30.06 "Hg7 mi
11:49 PM
Thu, Mar 5
77 °FPassing clouds.5 mph83%29.98 "Hg7 mi
10:45 PM79 °FPassing clouds.7 mph84%30.07 "Hg7 mi
9:48 PM79 °FPassing clouds.No wind79%30.06 "Hg7 mi
8:45 PM81 °FPassing clouds.7 mph79%30.07 "Hg7 mi
7:41 PM81 °FPassing clouds.6 mph74%30.02 "Hg7 mi
6:50 PM82 °FPassing clouds.7 mph66%29.98 "Hg7 mi
3:45 PM90 °FPartly sunny.10 mph52%29.91 "Hg7 mi
2:50 PM97 °FPartly sunny.12 mph32%29.92 "Hg7 mi
1:45 PM93 °FPartly sunny.9 mph36%29.93 "Hg7 mi
12:43 PM93 °FPartly sunny.18 mph36%29.95 "Hg7 mi
Weather by CustomWeather, © 2015

See weather overviewHow to use our weather pages